sat.trackr.live / text

‹ back to catalog

SES-3

NORAD 37748 · 2011-035A

PAYLOAD ACTIVE UNKNOWN

§ Identity

Operator
Country
US
Launch date
2011-07-15
Launch site
TYMSC
Launch vehicle
Mass (kg)
RCS (m²)
19.95

Purposes: comms

External: N2YO · Heavens-Above · Gunter

§ Orbital elements

Epoch: 2026-09-20T03:57:35.789184Z

Period
1,436.09 min
Inclination
1.5648°
Eccentricity
0.0002449
Mean motion
1.00272282 rev/d
Perigee alt
35,776.1 km
Apogee alt
35,796.8 km
Semi-major
42,164.6 km
B*
0.0000e+0
RAAN
81.8705°
Arg perigee
109.5050°
Mean anomaly
124.1088°
Rev number
5,554

§ Raw data

SES-31 37748U 11035A   26263.16499756 -.00000106  00000+0  00000+0 0  99912 37748   1.5648  81.8705 0002449 109.5050 124.1088  1.00272282 55540

JSON: /api/v1/satellites/37748 · /tle

For live sub-satellite position, see the globe view (requires WebGL).

§ Visibility from observer

Set your observer location to see the next 7 days of passes ≥ 10°. The values pass through the URL so the page stays shareable.

No JS? Fill the form by hand. The geolocation button needs JavaScript.